Time,TemperatureF,DewpointF,PressureIn,WindDirection,WindDirectionDegrees,WindSpeedMPH,WindSpeedGustMPH,Humidity,HourlyPrecipIn,Conditions,Clouds,dailyrainin,SoftwareType,DateUTC
2013-08-12 00:01:00,74.0,62.8,32.02,South,187,0.0,7.0,68,0.00,,---,0.00,VWS V14.01,2013-08-12 04:01:00,
2013-08-12 00:04:00,73.9,62.3,32.02,South,187,0.0,0.0,67,0.00,,---,0.00,VWS V14.01,2013-08-12 04:04:00,
2013-08-12 00:09:00,73.9,62.3,32.02,South,187,0.0,1.0,67,0.00,,---,0.00,VWS V14.01,2013-08-12 04:09:00,
2013-08-12 00:14:00,73.9,62.3,32.02,South,187,0.0,1.0,67,0.00,,---,0.00,VWS V14.01,2013-08-12 04:14:00,
2013-08-12 00:19:00,73.8,61.7,32.02,South,187,3.0,3.0,66,0.00,,---,0.00,VWS V14.01,2013-08-12 04:19:00,
2013-08-12 00:24:00,73.7,61.7,32.02,South,187,0.0,3.0,66,0.00,,---,0.00,VWS V14.01,2013-08-12 04:24:00,
2013-08-12 00:29:00,73.7,61.2,32.02,South,187,0.0,3.0,65,0.00,,---,0.00,VWS V14.01,2013-08-12 04:29:00,
2013-08-12 00:34:00,73.6,61.1,32.02,South,187,0.0,1.0,65,0.00,,---,0.00,VWS V14.01,2013-08-12 04:34:00,
2013-08-12 00:39:00,73.5,61.0,32.02,South,187,3.0,5.0,65,0.00,,---,0.00,VWS V14.01,2013-08-12 04:39:00,
2013-08-12 00:44:00,73.4,60.5,32.02,South,187,2.0,5.0,64,0.00,,---,0.00,VWS V14.01,2013-08-12 04:44:00,
2013-08-12 00:49:00,73.4,60.0,32.02,South,187,1.0,5.0,63,0.00,,---,0.00,VWS V14.01,2013-08-12 04:49:00,
2013-08-12 00:54:00,73.3,59.5,32.02,South,187,3.0,5.0,62,0.00,,---,0.00,VWS V14.01,2013-08-12 04:54:00,
2013-08-12 00:59:00,73.3,59.5,32.02,South,187,0.0,5.0,62,0.00,,---,0.00,VWS V14.01,2013-08-12 04:59:00,
2013-08-12 01:04:00,73.2,59.0,32.02,South,187,0.0,1.0,61,0.00,,---,0.00,VWS V14.01,2013-08-12 05:04:00,
2013-08-12 01:09:00,73.2,59.0,32.02,South,187,0.0,1.0,61,0.00,,---,0.00,VWS V14.01,2013-08-12 05:09:00,
2013-08-12 01:14:00,73.1,58.4,32.02,South,187,3.0,3.0,60,0.00,,---,0.00,VWS V14.01,2013-08-12 05:14:00,
2013-08-12 01:19:00,73.2,58.5,32.02,South,187,0.0,4.0,60,0.00,,---,0.00,VWS V14.01,2013-08-12 05:19:00,
2013-08-12 01:24:00,73.2,58.5,32.02,South,187,0.0,4.0,60,0.00,,---,0.00,VWS V14.01,2013-08-12 05:24:00,
2013-08-12 01:29:00,73.2,58.5,32.02,South,187,0.0,4.0,60,0.00,,---,0.00,VWS V14.01,2013-08-12 05:29:00,
2013-08-12 01:34:00,73.2,58.0,32.02,South,187,0.0,4.0,59,0.00,,---,0.00,VWS V14.01,2013-08-12 05:34:00,
2013-08-12 01:39:00,73.2,58.0,32.02,South,187,0.0,4.0,59,0.00,,---,0.00,VWS V14.01,2013-08-12 05:39:00,
2013-08-12 01:44:00,73.3,58.1,32.02,South,187,0.0,4.0,59,0.00,,---,0.00,VWS V14.01,2013-08-12 05:44:00,
2013-08-12 01:49:00,73.3,57.7,32.02,South,187,0.0,4.0,58,0.00,,---,0.00,VWS V14.01,2013-08-12 05:49:00,
2013-08-12 01:54:00,73.3,57.7,32.02,South,187,0.0,4.0,58,0.00,,---,0.00,VWS V14.01,2013-08-12 05:54:00,
2013-08-12 01:59:00,73.3,57.7,32.02,South,187,0.0,4.0,58,0.00,,---,0.00,VWS V14.01,2013-08-12 05:59:00,
2013-08-12 02:04:00,73.3,57.2,32.02,South,187,0.0,1.0,57,0.00,,---,0.00,VWS V14.01,2013-08-12 06:04:00,
2013-08-12 02:09:00,73.3,57.2,32.02,South,187,0.0,1.0,57,0.00,,---,0.00,VWS V14.01,2013-08-12 06:09:00,
2013-08-12 02:14:00,73.3,57.2,32.02,South,187,0.0,1.0,57,0.00,,---,0.00,VWS V14.01,2013-08-12 06:14:00,
2013-08-12 02:19:00,73.3,56.7,32.02,South,187,0.0,1.0,56,0.00,,---,0.00,VWS V14.01,2013-08-12 06:19:00,
2013-08-12 02:24:00,73.3,56.2,32.02,South,187,0.0,1.0,55,0.00,,---,0.00,VWS V14.01,2013-08-12 06:24:00,
2013-08-12 02:29:00,73.3,56.2,32.02,South,187,0.0,1.0,55,0.00,,---,0.00,VWS V14.01,2013-08-12 06:29:00,
2013-08-12 02:34:00,73.3,56.2,32.02,South,187,0.0,0.0,55,0.00,,---,0.00,VWS V14.01,2013-08-12 06:34:00,
2013-08-12 02:39:00,73.3,55.7,32.02,South,187,0.0,0.0,54,0.00,,---,0.00,VWS V14.01,2013-08-12 06:39:00,
2013-08-12 02:44:00,73.3,55.2,32.02,South,187,0.0,0.0,53,0.00,,---,0.00,VWS V14.01,2013-08-12 06:44:00,
2013-08-12 02:49:00,73.3,55.2,32.02,South,187,0.0,0.0,53,0.00,,---,0.00,VWS V14.01,2013-08-12 06:49:00,
2013-08-12 02:54:00,73.4,54.7,32.02,South,187,0.0,0.0,52,0.01,,---,0.01,VWS V14.01,2013-08-12 06:54:00,
2013-08-12 02:59:00,73.3,54.1,32.02,South,187,0.0,0.0,51,0.09,,---,0.09,VWS V14.01,2013-08-12 06:59:00,
2013-08-12 03:04:00,73.3,53.6,32.02,South,187,0.0,0.0,50,0.10,,---,0.10,VWS V14.01,2013-08-12 07:04:00,
2013-08-12 03:09:00,73.3,53.0,32.02,South,187,0.0,0.0,49,0.10,,---,0.10,VWS V14.01,2013-08-12 07:09:00,
2013-08-12 03:14:00,73.2,52.9,32.02,South,187,0.0,0.0,49,0.10,,---,0.10,VWS V14.01,2013-08-12 07:14:00,
2013-08-12 03:19:00,73.1,52.3,32.02,South,187,0.0,0.0,48,0.10,,---,0.10,VWS V14.01,2013-08-12 07:19:00,
2013-08-12 03:23:00,73.0,52.2,32.02,South,187,0.0,0.0,48,0.10,,---,0.10,VWS V14.01,2013-08-12 07:23:00,
2013-08-12 03:29:00,73.0,52.2,32.02,South,187,0.0,0.0,48,0.10,,---,0.10,VWS V14.01,2013-08-12 07:29:00,
2013-08-12 03:34:00,72.9,51.5,32.02,South,187,0.0,0.0,47,0.10,,---,0.10,VWS V14.01,2013-08-12 07:34:00,
2013-08-12 03:39:00,72.9,51.5,32.02,South,187,0.0,0.0,47,0.10,,---,0.10,VWS V14.01,2013-08-12 07:39:00,
2013-08-12 03:43:00,72.8,51.4,32.02,South,187,0.0,0.0,47,0.10,,---,0.10,VWS V14.01,2013-08-12 07:43:00,
2013-08-12 03:48:00,72.7,51.3,32.02,South,187,0.0,0.0,47,0.10,,---,0.10,VWS V14.01,2013-08-12 07:48:00,
2013-08-12 03:53:00,72.6,51.2,32.02,South,187,0.0,0.0,47,0.10,,---,0.10,VWS V14.01,2013-08-12 07:53:00,
2013-08-12 03:58:00,72.6,50.7,32.02,South,187,0.0,0.0,46,0.10,,---,0.10,VWS V14.01,2013-08-12 07:58:00,
2013-08-12 04:03:00,72.6,50.7,32.02,South,187,0.0,0.0,46,0.01,,---,0.10,VWS V14.01,2013-08-12 08:03:00,
2013-08-12 04:08:00,72.6,50.7,32.02,South,187,0.0,0.0,46,0.01,,---,0.10,VWS V14.01,2013-08-12 08:08:00,
2013-08-12 04:13:00,72.5,50.6,32.02,South,187,0.0,0.0,46,0.01,,---,0.10,VWS V14.01,2013-08-12 08:13:00,
2013-08-12 04:18:00,72.4,49.9,32.02,South,187,0.0,0.0,45,0.01,,---,0.10,VWS V14.01,2013-08-12 08:18:00,
2013-08-12 04:23:00,72.4,49.9,32.02,South,187,0.0,0.0,45,0.01,,---,0.10,VWS V14.01,2013-08-12 08:23:00,
2013-08-12 04:28:00,72.3,49.8,32.02,South,187,0.0,0.0,45,0.01,,---,0.10,VWS V14.01,2013-08-12 08:28:00,
2013-08-12 04:33:00,72.2,49.7,32.02,South,187,0.0,0.0,45,0.00,,---,0.10,VWS V14.01,2013-08-12 08:33:00,
2013-08-12 04:38:00,72.2,49.7,32.02,South,187,0.0,0.0,45,0.00,,---,0.10,VWS V14.01,2013-08-12 08:38:00,
2013-08-12 04:43:00,72.2,49.7,32.02,South,187,0.0,0.0,45,0.00,,---,0.10,VWS V14.01,2013-08-12 08:43:00,
2013-08-12 04:48:00,72.1,49.0,32.02,South,187,0.0,0.0,44,0.00,,---,0.10,VWS V14.01,2013-08-12 08:48:00,
2013-08-12 04:53:00,72.0,48.9,32.02,South,187,0.0,0.0,44,0.00,,---,0.10,VWS V14.01,2013-08-12 08:53:00,
2013-08-12 04:58:00,72.0,48.9,32.02,South,187,0.0,0.0,44,0.00,,---,0.10,VWS V14.01,2013-08-12 08:58:00,
2013-08-12 05:03:00,71.9,48.8,32.02,South,187,0.0,0.0,44,0.00,,---,0.10,VWS V14.01,2013-08-12 09:03:00,
2013-08-12 05:08:00,71.9,48.8,32.02,South,187,0.0,0.0,44,0.00,,---,0.10,VWS V14.01,2013-08-12 09:08:00,
2013-08-12 05:13:00,71.9,48.8,32.02,South,187,0.0,0.0,44,0.00,,---,0.10,VWS V14.01,2013-08-12 09:13:00,
2013-08-12 05:18:00,71.8,48.7,32.02,South,187,0.0,0.0,44,0.00,,---,0.10,VWS V14.01,2013-08-12 09:18:00,
2013-08-12 05:23:00,71.7,48.7,32.02,South,187,0.0,0.0,44,0.00,,---,0.10,VWS V14.01,2013-08-12 09:23:00,
2013-08-12 05:28:00,71.7,48.0,32.02,South,187,0.0,0.0,43,0.00,,---,0.10,VWS V14.01,2013-08-12 09:28:00,
2013-08-12 05:33:00,71.6,47.9,32.02,South,187,0.0,0.0,43,0.00,,---,0.10,VWS V14.01,2013-08-12 09:33:00,
2013-08-12 05:38:00,71.6,47.9,32.02,South,187,0.0,0.0,43,0.00,,---,0.10,VWS V14.01,2013-08-12 09:38:00,
2013-08-12 05:43:00,71.5,47.8,32.02,South,187,0.0,0.0,43,0.00,,---,0.10,VWS V14.01,2013-08-12 09:43:00,
2013-08-12 05:48:00,71.5,47.8,32.02,South,187,0.0,0.0,43,0.00,,---,0.10,VWS V14.01,2013-08-12 09:48:00,
2013-08-12 05:53:00,71.6,47.9,32.02,South,187,0.0,0.0,43,0.00,,---,0.10,VWS V14.01,2013-08-12 09:53:00,
2013-08-12 05:58:00,71.6,47.9,32.02,South,187,0.0,0.0,43,0.00,,---,0.10,VWS V14.01,2013-08-12 09:58:00,
2013-08-12 06:03:00,71.6,47.9,32.02,South,187,0.0,0.0,43,0.00,,---,0.10,VWS V14.01,2013-08-12 10:03:00,
2013-08-12 06:08:00,71.6,47.9,32.02,South,187,0.0,0.0,43,0.00,,---,0.10,VWS V14.01,2013-08-12 10:08:00,
2013-08-12 06:13:00,71.7,48.0,32.02,South,187,0.0,0.0,43,0.00,,---,0.10,VWS V14.01,2013-08-12 10:13:00,
2013-08-12 06:18:00,71.6,47.9,32.02,South,187,0.0,0.0,43,0.00,,---,0.10,VWS V14.01,2013-08-12 10:18:00,
2013-08-12 06:23:00,71.7,47.4,32.02,South,187,0.0,0.0,42,0.00,,---,0.10,VWS V14.01,2013-08-12 10:23:00,
2013-08-12 06:28:00,71.6,47.3,32.02,South,187,0.0,0.0,42,0.00,,---,0.10,VWS V14.01,2013-08-12 10:28:00,
2013-08-12 06:33:00,71.6,47.3,32.02,South,187,0.0,0.0,42,0.00,,---,0.10,VWS V14.01,2013-08-12 10:33:00,
2013-08-12 06:38:00,71.6,47.3,32.02,South,187,0.0,0.0,42,0.00,,---,0.10,VWS V14.01,2013-08-12 10:38:00,
2013-08-12 06:43:00,71.6,47.3,32.02,South,187,0.0,0.0,42,0.01,,---,0.11,VWS V14.01,2013-08-12 10:43:00,
2013-08-12 06:48:00,71.7,47.4,32.02,South,187,0.0,0.0,42,0.01,,---,0.11,VWS V14.01,2013-08-12 10:48:00,
2013-08-12 06:53:00,71.7,47.4,32.02,South,187,0.0,0.0,42,0.01,,---,0.11,VWS V14.01,2013-08-12 10:53:00,
2013-08-12 06:58:00,71.8,47.5,32.02,South,187,0.0,0.0,42,0.01,,---,0.11,VWS V14.01,2013-08-12 10:58:00,
2013-08-12 07:03:00,71.7,47.4,32.02,South,187,0.0,0.0,42,0.01,,---,0.11,VWS V14.01,2013-08-12 11:03:00,
2013-08-12 07:08:00,71.7,47.4,32.02,South,187,0.0,0.0,42,0.01,,---,0.11,VWS V14.01,2013-08-12 11:08:00,
2013-08-12 07:13:00,71.7,47.4,32.02,South,187,0.0,0.0,42,0.01,,---,0.11,VWS V14.01,2013-08-12 11:13:00,
2013-08-12 07:18:00,71.8,47.5,32.02,South,187,0.0,0.0,42,0.01,,---,0.11,VWS V14.01,2013-08-12 11:18:00,
2013-08-12 07:23:00,71.9,47.6,32.02,South,187,0.0,0.0,42,0.01,,---,0.11,VWS V14.01,2013-08-12 11:23:00,
2013-08-12 07:28:00,71.9,47.6,32.02,South,187,0.0,0.0,42,0.01,,---,0.11,VWS V14.01,2013-08-12 11:28:00,
2013-08-12 07:33:00,72.0,47.7,32.02,South,187,0.0,0.0,42,0.01,,---,0.11,VWS V14.01,2013-08-12 11:33:00,
2013-08-12 07:38:00,72.0,47.7,32.02,South,187,0.0,0.0,42,0.01,,---,0.11,VWS V14.01,2013-08-12 11:38:00,
2013-08-12 07:43:00,72.0,47.7,32.02,South,187,0.0,0.0,42,0.01,,---,0.11,VWS V14.01,2013-08-12 11:43:00,
2013-08-12 07:48:00,72.1,47.8,32.02,South,187,0.0,0.0,42,0.01,,---,0.11,VWS V14.01,2013-08-12 11:48:00,
2013-08-12 07:53:00,72.1,47.8,32.02,South,187,0.0,0.0,42,0.01,,---,0.11,VWS V14.01,2013-08-12 11:53:00,
2013-08-12 07:58:00,72.1,47.8,32.02,South,187,0.0,0.0,42,0.01,,---,0.11,VWS V14.01,2013-08-12 11:58:00,
2013-08-12 08:03:00,72.1,47.8,32.02,South,187,0.0,0.0,42,0.00,,---,0.11,VWS V14.01,2013-08-12 12:03:00,
2013-08-12 08:08:00,72.1,47.8,32.02,South,187,0.0,0.0,42,0.00,,---,0.11,VWS V14.01,2013-08-12 12:08:00,
2013-08-12 08:13:00,72.2,47.9,32.02,South,187,0.0,0.0,42,0.00,,---,0.11,VWS V14.01,2013-08-12 12:13:00,
2013-08-12 08:18:00,72.2,47.9,32.02,South,187,0.0,0.0,42,0.00,,---,0.11,VWS V14.01,2013-08-12 12:18:00,
2013-08-12 08:23:00,72.2,47.9,32.02,South,187,0.0,0.0,42,0.00,,---,0.11,VWS V14.01,2013-08-12 12:23:00,
2013-08-12 08:28:00,72.3,48.0,32.02,South,187,0.0,0.0,42,0.00,,---,0.11,VWS V14.01,2013-08-12 12:28:00,
2013-08-12 08:33:00,72.3,48.0,32.02,South,187,0.0,0.0,42,0.00,,---,0.11,VWS V14.01,2013-08-12 12:33:00,
2013-08-12 08:38:00,72.6,48.2,32.02,South,187,0.0,0.0,42,0.00,,---,0.11,VWS V14.01,2013-08-12 12:38:00,
2013-08-12 08:43:00,72.9,48.5,32.02,South,187,0.0,0.0,42,0.00,,---,0.11,VWS V14.01,2013-08-12 12:43:00,
2013-08-12 08:48:00,73.0,48.6,32.02,South,187,0.0,0.0,42,0.00,,---,0.11,VWS V14.01,2013-08-12 12:48:00,
2013-08-12 08:53:00,72.8,48.4,32.02,South,187,0.0,0.0,42,0.00,,---,0.11,VWS V14.01,2013-08-12 12:53:00,
2013-08-12 08:58:00,73.0,48.6,32.02,South,187,0.0,1.0,42,0.00,,---,0.11,VWS V14.01,2013-08-12 12:58:00,
2013-08-12 09:03:00,73.1,48.7,32.02,South,187,0.0,1.0,42,0.00,,---,0.11,VWS V14.01,2013-08-12 13:03:00,
2013-08-12 09:08:00,73.1,48.7,32.02,South,187,0.0,1.0,42,0.00,,---,0.11,VWS V14.01,2013-08-12 13:08:00,
2013-08-12 09:13:00,73.1,48.7,32.02,South,187,0.0,1.0,42,0.00,,---,0.11,VWS V14.01,2013-08-12 13:13:00,
2013-08-12 09:18:00,73.1,48.7,32.02,South,187,0.0,1.0,42,0.00,,---,0.11,VWS V14.01,2013-08-12 13:18:00,
2013-08-12 09:23:00,73.1,48.7,32.02,South,187,0.0,1.0,42,0.00,,---,0.11,VWS V14.01,2013-08-12 13:23:00,
2013-08-12 09:28:00,73.3,48.8,32.02,South,187,0.0,1.0,42,0.00,,---,0.11,VWS V14.01,2013-08-12 13:28:00,
2013-08-12 09:33:00,73.2,48.8,32.02,South,187,0.0,0.0,42,0.00,,---,0.11,VWS V14.01,2013-08-12 13:33:00,
2013-08-12 09:38:00,73.3,48.8,32.02,South,187,0.0,0.0,42,0.00,,---,0.11,VWS V14.01,2013-08-12 13:38:00,
2013-08-12 09:43:00,73.3,48.8,32.02,South,187,0.0,0.0,42,0.00,,---,0.11,VWS V14.01,2013-08-12 13:43:00,
2013-08-12 09:48:00,73.5,49.0,32.02,South,187,0.0,0.0,42,0.00,,---,0.11,VWS V14.01,2013-08-12 13:48:00,
2013-08-12 09:53:00,73.3,48.8,32.02,South,187,0.0,1.0,42,0.00,,---,0.11,VWS V14.01,2013-08-12 13:53:00,
2013-08-12 09:58:00,73.4,48.9,32.02,South,187,0.0,1.0,42,0.00,,---,0.11,VWS V14.01,2013-08-12 13:58:00,
2013-08-12 10:03:00,73.3,49.5,32.02,South,187,0.0,1.0,43,0.00,,---,0.11,VWS V14.01,2013-08-12 14:03:00,
2013-08-12 10:08:00,73.0,49.8,32.02,South,187,0.0,3.0,44,0.00,,---,0.11,VWS V14.01,2013-08-12 14:08:00,
2013-08-12 10:13:00,73.0,49.8,32.02,South,187,0.0,3.0,44,0.00,,---,0.11,VWS V14.01,2013-08-12 14:13:00,
2013-08-12 10:18:00,73.0,50.4,32.02,South,187,0.0,3.0,45,0.00,,---,0.11,VWS V14.01,2013-08-12 14:18:00,
2013-08-12 10:23:00,73.1,50.5,32.02,South,187,0.0,3.0,45,0.00,,---,0.11,VWS V14.01,2013-08-12 14:23:00,
2013-08-12 10:28:00,73.0,51.6,32.02,South,187,0.0,3.0,47,0.00,,---,0.11,VWS V14.01,2013-08-12 14:28:00,
2013-08-12 10:33:00,73.1,51.7,32.02,South,187,0.0,0.0,47,0.00,,---,0.11,VWS V14.01,2013-08-12 14:33:00,
2013-08-12 10:38:00,73.1,52.3,32.02,South,187,0.0,0.0,48,0.00,,---,0.11,VWS V14.01,2013-08-12 14:38:00,
2013-08-12 10:43:00,73.2,52.9,32.02,South,187,0.0,1.0,49,0.00,,---,0.11,VWS V14.01,2013-08-12 14:43:00,
2013-08-12 10:48:00,73.3,53.0,32.02,South,187,0.0,1.0,49,0.00,,---,0.11,VWS V14.01,2013-08-12 14:48:00,
2013-08-12 10:53:00,73.3,53.6,32.02,South,187,0.0,2.0,50,0.00,,---,0.11,VWS V14.01,2013-08-12 14:53:00,
2013-08-12 10:58:00,73.3,53.6,32.02,South,187,0.0,2.0,50,0.00,,---,0.11,VWS V14.01,2013-08-12 14:58:00,
2013-08-12 11:03:00,73.4,53.7,32.02,South,187,0.0,1.0,50,0.00,,---,0.11,VWS V14.01,2013-08-12 15:03:00,
2013-08-12 11:08:00,73.4,54.2,32.02,South,187,0.0,1.0,51,0.00,,---,0.11,VWS V14.01,2013-08-12 15:08:00,
2013-08-12 11:13:00,73.4,55.2,32.02,South,187,0.0,1.0,53,0.00,,---,0.11,VWS V14.01,2013-08-12 15:13:00,
2013-08-12 11:18:00,73.4,57.3,32.02,South,187,0.0,1.0,57,0.00,,---,0.11,VWS V14.01,2013-08-12 15:18:00,
2013-08-12 11:23:00,73.4,59.2,32.02,South,187,0.0,2.0,61,0.00,,---,0.11,VWS V14.01,2013-08-12 15:23:00,
2013-08-12 11:28:00,73.6,60.2,32.02,South,187,0.0,2.0,63,0.00,,---,0.11,VWS V14.01,2013-08-12 15:28:00,
2013-08-12 11:33:00,73.8,60.9,32.02,South,187,0.0,1.0,64,0.00,,---,0.11,VWS V14.01,2013-08-12 15:33:00,
2013-08-12 11:38:00,73.9,61.4,32.02,South,187,0.0,3.0,65,0.00,,---,0.11,VWS V14.01,2013-08-12 15:38:00,
2013-08-12 11:43:00,74.1,61.6,32.02,South,187,0.0,3.0,65,0.00,,---,0.11,VWS V14.01,2013-08-12 15:43:00,
2013-08-12 11:48:00,74.5,62.8,32.02,South,175,0.0,3.0,67,0.00,,---,0.11,VWS V14.01,2013-08-12 15:48:00,
2013-08-12 11:53:00,74.9,63.2,32.02,SSE,156,0.0,3.0,67,0.00,,---,0.11,VWS V14.01,2013-08-12 15:53:00,
2013-08-12 11:58:00,75.2,64.3,32.02,SE,133,0.0,3.0,69,0.00,,---,0.11,VWS V14.01,2013-08-12 15:58:00,
2013-08-12 12:03:00,75.4,64.5,32.02,SE,129,0.0,3.0,69,0.00,,---,0.11,VWS V14.01,2013-08-12 16:03:00,
2013-08-12 12:08:00,75.7,65.2,32.02,ESE,109,0.0,5.0,70,0.00,,---,0.11,VWS V14.01,2013-08-12 16:08:00,
2013-08-12 12:13:00,76.1,65.6,32.02,ESE,109,0.0,5.0,70,0.00,,---,0.11,VWS V14.01,2013-08-12 16:13:00,
2013-08-12 12:18:00,76.7,66.2,32.02,ESE,109,0.0,5.0,70,0.00,,---,0.11,VWS V14.01,2013-08-12 16:18:00,
2013-08-12 12:23:00,77.1,66.6,32.02,ESE,109,1.0,5.0,70,0.00,,---,0.11,VWS V14.01,2013-08-12 16:23:00,
2013-08-12 12:28:00,77.1,66.6,32.02,ESE,109,0.0,6.0,70,0.00,,---,0.11,VWS V14.01,2013-08-12 16:28:00,
2013-08-12 12:33:00,77.5,66.9,32.02,ESE,105,0.0,3.0,70,0.00,,---,0.11,VWS V14.01,2013-08-12 16:33:00,
2013-08-12 12:38:00,78.1,67.5,32.02,ESE,105,0.0,4.0,70,0.00,,---,0.11,VWS V14.01,2013-08-12 16:38:00,
2013-08-12 12:43:00,78.7,67.3,32.02,NNE,22,0.0,4.0,68,0.00,,---,0.11,VWS V14.01,2013-08-12 16:43:00,
2013-08-12 12:48:00,79.6,68.5,32.02,NE,49,3.0,4.0,69,0.00,,---,0.11,VWS V14.01,2013-08-12 16:48:00,
2013-08-12 12:53:00,80.0,68.1,32.02,SSE,155,0.0,4.0,67,0.00,,---,0.11,VWS V14.01,2013-08-12 16:53:00,
2013-08-12 12:58:00,80.0,68.1,32.02,East,86,0.0,4.0,67,0.00,,---,0.11,VWS V14.01,2013-08-12 16:58:00,
2013-08-12 13:03:00,79.9,68.4,32.02,East,86,0.0,1.0,68,0.00,,---,0.11,VWS V14.01,2013-08-12 17:03:00,
2013-08-12 13:08:00,80.4,68.9,32.02,East,86,1.0,1.0,68,0.00,,---,0.11,VWS V14.01,2013-08-12 17:08:00,
2013-08-12 13:13:00,80.6,69.1,32.02,East,93,0.0,4.0,68,0.00,,---,0.11,VWS V14.01,2013-08-12 17:13:00,
2013-08-12 13:18:00,80.3,68.8,32.02,ESE,109,0.0,4.0,68,0.00,,---,0.11,VWS V14.01,2013-08-12 17:18:00,
2013-08-12 13:23:00,80.7,69.6,32.02,SE,126,0.0,4.0,69,0.00,,---,0.11,VWS V14.01,2013-08-12 17:23:00,
2013-08-12 13:28:00,81.6,70.0,32.02,East,101,0.0,4.0,68,0.00,,---,0.11,VWS V14.01,2013-08-12 17:28:00,
2013-08-12 13:33:00,81.3,69.3,32.02,ESE,109,0.0,0.0,67,0.00,,---,0.11,VWS V14.01,2013-08-12 17:33:00,
2013-08-12 13:38:00,80.9,69.4,32.02,ESE,107,0.0,3.0,68,0.00,,---,0.11,VWS V14.01,2013-08-12 17:38:00,
2013-08-12 13:43:00,80.9,69.4,32.02,ESE,105,0.0,3.0,68,0.00,,---,0.11,VWS V14.01,2013-08-12 17:43:00,
2013-08-12 13:48:00,81.1,69.1,32.02,East,98,0.0,3.0,67,0.00,,---,0.11,VWS V14.01,2013-08-12 17:48:00,
2013-08-12 13:53:00,81.2,69.2,32.02,East,88,0.0,3.0,67,0.00,,---,0.11,VWS V14.01,2013-08-12 17:53:00,
2013-08-12 13:58:00,81.3,68.9,32.02,East,88,0.0,3.0,66,0.00,,---,0.11,VWS V14.01,2013-08-12 17:58:00,
2013-08-12 14:03:00,81.2,69.2,32.02,ESE,105,0.0,0.0,67,0.00,,---,0.11,VWS V14.01,2013-08-12 18:03:00,
2013-08-12 14:08:00,81.1,69.1,32.02,ESE,105,0.0,3.0,67,0.00,,---,0.11,VWS V14.01,2013-08-12 18:08:00,
2013-08-12 14:13:00,81.1,68.7,32.02,ESE,105,0.0,3.0,66,0.00,,---,0.11,VWS V14.01,2013-08-12 18:13:00,
2013-08-12 14:18:00,81.4,67.1,32.02,ENE,57,0.0,3.0,62,0.00,,---,0.11,VWS V14.01,2013-08-12 18:18:00,
2013-08-12 14:23:00,81.4,64.7,32.02,ESE,103,0.0,6.0,57,0.00,,---,0.11,VWS V14.01,2013-08-12 18:23:00,
2013-08-12 14:29:00,80.7,63.0,32.02,East,87,0.0,0.0,55,0.00,,---,0.11,VWS V14.01,2013-08-12 18:29:00,
2013-08-12 14:34:00,80.7,66.9,32.02,East,86,0.0,1.0,63,0.00,,---,0.11,VWS V14.01,2013-08-12 18:34:00,
2013-08-12 14:39:00,80.7,65.5,32.02,SE,132,0.0,3.0,60,0.00,,---,0.11,VWS V14.01,2013-08-12 18:39:00,
2013-08-12 14:44:00,80.8,66.1,32.02,ESE,113,4.0,4.0,61,0.00,,---,0.11,VWS V14.01,2013-08-12 18:44:00,
2013-08-12 14:49:00,80.5,66.3,32.02,East,98,0.0,4.0,62,0.00,,---,0.11,VWS V14.01,2013-08-12 18:49:00,
2013-08-12 14:54:00,80.8,65.2,32.02,East,94,0.0,4.0,59,0.00,,---,0.11,VWS V14.01,2013-08-12 18:54:00,
2013-08-12 14:59:00,80.5,63.9,32.02,ESE,103,0.0,4.0,57,0.00,,---,0.11,VWS V14.01,2013-08-12 18:59:00,
2013-08-12 15:04:00,80.5,63.4,32.02,ESE,114,0.0,1.0,56,0.00,,---,0.11,VWS V14.01,2013-08-12 19:04:00,
2013-08-12 15:09:00,81.1,64.4,32.02,East,88,0.0,2.0,57,0.00,,---,0.11,VWS V14.01,2013-08-12 19:09:00,
2013-08-12 15:14:00,81.3,64.1,32.02,East,101,0.0,5.0,56,0.00,,---,0.11,VWS V14.01,2013-08-12 19:14:00,
2013-08-12 15:19:00,80.9,64.8,32.02,ESE,109,0.0,5.0,58,0.00,,---,0.11,VWS V14.01,2013-08-12 19:19:00,
2013-08-12 15:24:00,81.2,65.5,32.02,ESE,105,0.0,5.0,59,0.00,,---,0.11,VWS V14.01,2013-08-12 19:24:00,
2013-08-12 15:29:00,81.2,65.5,32.02,ENE,71,0.0,5.0,59,0.00,,---,0.11,VWS V14.01,2013-08-12 19:29:00,
2013-08-12 15:34:00,82.0,66.8,32.02,East,92,0.0,2.0,60,0.00,,---,0.11,VWS V14.01,2013-08-12 19:34:00,
2013-08-12 15:39:00,82.1,66.4,32.02,East,96,2.0,2.0,59,0.00,,---,0.11,VWS V14.01,2013-08-12 19:39:00,
2013-08-12 15:44:00,81.7,66.9,32.02,ESE,113,0.0,2.0,61,0.00,,---,0.11,VWS V14.01,2013-08-12 19:44:00,
2013-08-12 15:49:00,81.1,67.3,32.02,ESE,105,0.0,2.0,63,0.00,,---,0.11,VWS V14.01,2013-08-12 19:49:00,
2013-08-12 15:54:00,82.6,68.7,32.02,ESE,118,1.0,2.0,63,0.00,,---,0.11,VWS V14.01,2013-08-12 19:54:00,
2013-08-12 15:59:00,83.0,66.7,32.02,East,98,0.0,2.0,58,0.00,,---,0.11,VWS V14.01,2013-08-12 19:59:00,
2013-08-12 16:04:00,82.0,67.2,32.02,ESE,112,0.0,4.0,61,0.00,,---,0.11,VWS V14.01,2013-08-12 20:04:00,
2013-08-12 16:09:00,81.9,68.1,32.02,ESE,118,0.0,4.0,63,0.00,,---,0.11,VWS V14.01,2013-08-12 20:09:00,
2013-08-12 16:14:00,82.2,67.4,32.02,ESE,113,0.0,4.0,61,0.00,,---,0.11,VWS V14.01,2013-08-12 20:14:00,
2013-08-12 16:19:00,82.4,67.1,32.02,East,86,0.0,4.0,60,0.00,,---,0.11,VWS V14.01,2013-08-12 20:19:00,
2013-08-12 16:24:00,82.1,67.8,32.02,East,88,0.0,4.0,62,0.00,,---,0.11,VWS V14.01,2013-08-12 20:24:00,
2013-08-12 16:29:00,82.1,67.8,32.02,East,99,0.0,4.0,62,0.00,,---,0.11,VWS V14.01,2013-08-12 20:29:00,
2013-08-12 16:34:00,81.1,67.3,32.02,ESE,108,1.0,4.0,63,0.00,,---,0.11,VWS V14.01,2013-08-12 20:34:00,
2013-08-12 16:39:00,80.9,68.9,32.02,East,101,2.0,4.0,67,0.00,,---,0.11,VWS V14.01,2013-08-12 20:39:00,
2013-08-12 16:44:00,80.6,68.2,32.02,East,99,0.0,4.0,66,0.00,,---,0.11,VWS V14.01,2013-08-12 20:44:00,
2013-08-12 16:49:00,80.5,68.5,32.02,ESE,106,0.0,4.0,67,0.00,,---,0.11,VWS V14.01,2013-08-12 20:49:00,
2013-08-12 16:54:00,80.8,68.8,32.02,ESE,106,0.0,4.0,67,0.00,,---,0.11,VWS V14.01,2013-08-12 20:54:00,
2013-08-12 16:59:00,81.0,68.6,32.02,East,101,0.0,4.0,66,0.00,,---,0.11,VWS V14.01,2013-08-12 20:59:00,
2013-08-12 17:04:00,81.3,68.9,32.02,East,101,0.0,1.0,66,0.00,,---,0.11,VWS V14.01,2013-08-12 21:04:00,
2013-08-12 17:09:00,81.9,69.4,32.02,East,101,0.0,1.0,66,0.00,,---,0.11,VWS V14.01,2013-08-12 21:09:00,
2013-08-12 17:14:00,81.3,68.4,32.02,ESE,107,3.0,3.0,65,0.00,,---,0.11,VWS V14.01,2013-08-12 21:14:00,
2013-08-12 17:19:00,80.8,69.3,32.02,ESE,111,0.0,3.0,68,0.00,,---,0.11,VWS V14.01,2013-08-12 21:19:00,
2013-08-12 17:24:00,81.2,69.2,32.02,ESE,108,0.0,3.0,67,0.00,,---,0.11,VWS V14.01,2013-08-12 21:24:00,
2013-08-12 17:29:00,81.3,69.7,32.02,ESE,105,0.0,3.0,68,0.00,,---,0.11,VWS V14.01,2013-08-12 21:29:00,
2013-08-12 17:34:00,80.7,69.2,32.02,East,86,0.0,3.0,68,0.00,,---,0.11,VWS V14.01,2013-08-12 21:34:00,
2013-08-12 17:39:00,80.9,69.8,32.02,East,92,0.0,3.0,69,0.00,,---,0.11,VWS V14.01,2013-08-12 21:39:00,
2013-08-12 17:44:00,81.1,69.6,32.02,East,80,1.0,3.0,68,0.00,,---,0.11,VWS V14.01,2013-08-12 21:44:00,
2013-08-12 17:49:00,80.5,69.4,32.02,ESE,116,0.0,4.0,69,0.00,,---,0.11,VWS V14.01,2013-08-12 21:49:00,
2013-08-12 17:54:00,80.2,69.1,32.02,ESE,117,0.0,4.0,69,0.00,,---,0.11,VWS V14.01,2013-08-12 21:54:00,
2013-08-12 17:59:00,80.6,69.1,32.02,ESE,117,0.0,4.0,68,0.00,,---,0.11,VWS V14.01,2013-08-12 21:59:00,
2013-08-12 18:04:00,81.0,69.4,32.02,ESE,117,0.0,1.0,68,0.00,,---,0.11,VWS V14.01,2013-08-12 22:04:00,
2013-08-12 18:09:00,81.0,69.4,32.02,ESE,117,0.0,1.0,68,0.00,,---,0.11,VWS V14.01,2013-08-12 22:09:00,
2013-08-12 18:14:00,80.9,69.4,32.02,ESE,117,0.0,2.0,68,0.00,,---,0.11,VWS V14.01,2013-08-12 22:14:00,
2013-08-12 18:19:00,80.8,69.3,32.02,ESE,117,0.0,2.0,68,0.00,,---,0.11,VWS V14.01,2013-08-12 22:19:00,
2013-08-12 18:24:00,80.9,69.4,32.02,ESE,117,0.0,2.0,68,0.00,,---,0.11,VWS V14.01,2013-08-12 22:24:00,
2013-08-12 18:29:00,81.0,69.4,32.02,ESE,117,1.0,2.0,68,0.00,,---,0.11,VWS V14.01,2013-08-12 22:29:00,
2013-08-12 18:34:00,80.9,69.4,32.02,ESE,117,0.0,1.0,68,0.00,,---,0.11,VWS V14.01,2013-08-12 22:34:00,
2013-08-12 18:39:00,80.7,68.7,32.02,ESE,117,0.0,1.0,67,0.00,,---,0.11,VWS V14.01,2013-08-12 22:39:00,
2013-08-12 18:44:00,80.4,68.4,32.02,ESE,117,0.0,1.0,67,0.00,,---,0.11,VWS V14.01,2013-08-12 22:44:00,
2013-08-12 18:49:00,80.3,69.2,32.02,ESE,117,1.0,1.0,69,0.00,,---,0.11,VWS V14.01,2013-08-12 22:49:00,
2013-08-12 18:54:00,80.1,69.4,32.02,ESE,117,0.0,2.0,70,0.00,,---,0.11,VWS V14.01,2013-08-12 22:54:00,
2013-08-12 18:59:00,79.8,69.2,32.02,ESE,117,0.0,2.0,70,0.00,,---,0.11,VWS V14.01,2013-08-12 22:59:00,
2013-08-12 19:04:00,79.7,69.5,32.02,ESE,117,0.0,3.0,71,0.00,,---,0.11,VWS V14.01,2013-08-12 23:04:00,
2013-08-12 19:09:00,79.4,69.2,32.02,ESE,117,0.0,4.0,71,0.00,,---,0.11,VWS V14.01,2013-08-12 23:09:00,
2013-08-12 19:14:00,79.0,68.8,32.02,ESE,117,0.0,4.0,71,0.00,,---,0.11,VWS V14.01,2013-08-12 23:14:00,
2013-08-12 19:19:00,78.7,68.5,32.02,ESE,117,0.0,4.0,71,0.00,,---,0.11,VWS V14.01,2013-08-12 23:19:00,
2013-08-12 19:24:00,78.7,68.5,32.02,ESE,117,0.0,4.0,71,0.00,,---,0.11,VWS V14.01,2013-08-12 23:24:00,
2013-08-12 19:29:00,78.3,68.1,32.02,ESE,117,0.0,4.0,71,0.00,,---,0.11,VWS V14.01,2013-08-12 23:29:00,
2013-08-12 19:34:00,78.2,68.0,32.02,ESE,117,0.0,0.0,71,0.00,,---,0.11,VWS V14.01,2013-08-12 23:34:00,
2013-08-12 19:39:00,78.0,67.4,32.02,ESE,117,0.0,0.0,70,0.00,,---,0.11,VWS V14.01,2013-08-12 23:39:00,
2013-08-12 19:44:00,77.8,67.2,32.02,ESE,117,0.0,0.0,70,0.00,,---,0.11,VWS V14.01,2013-08-12 23:44:00,
2013-08-12 19:49:00,77.6,67.1,32.02,ESE,117,0.0,0.0,70,0.00,,---,0.11,VWS V14.01,2013-08-12 23:49:00,
2013-08-12 19:54:00,77.5,66.9,32.02,ESE,117,0.0,0.0,70,0.00,,---,0.11,VWS V14.01,2013-08-12 23:54:00,
2013-08-12 19:59:00,77.4,66.9,32.02,ESE,117,0.0,0.0,70,0.00,,---,0.11,VWS V14.01,2013-08-12 23:59:00,
2013-08-12 20:04:00,77.3,66.3,32.02,ESE,117,0.0,0.0,69,0.00,,---,0.11,VWS V14.01,2013-08-13 00:04:00,
2013-08-12 20:09:00,77.3,65.5,32.02,ESE,117,0.0,0.0,67,0.00,,---,0.11,VWS V14.01,2013-08-13 00:09:00,
2013-08-12 20:14:00,77.1,65.3,32.02,ESE,117,0.0,0.0,67,0.00,,---,0.11,VWS V14.01,2013-08-13 00:14:00,
2013-08-12 20:18:00,76.8,64.6,32.02,ESE,117,0.0,0.0,66,0.00,,---,0.11,VWS V14.01,2013-08-13 00:18:00,
2013-08-12 20:24:00,76.6,64.4,32.02,ESE,117,0.0,0.0,66,0.00,,---,0.11,VWS V14.01,2013-08-13 00:24:00,
2013-08-12 20:28:00,76.3,63.7,32.02,ESE,117,0.0,0.0,65,0.00,,---,0.11,VWS V14.01,2013-08-13 00:28:00,
2013-08-12 20:33:00,76.1,63.5,32.02,ESE,117,0.0,0.0,65,0.00,,---,0.11,VWS V14.01,2013-08-13 00:33:00,
2013-08-12 20:38:00,76.0,63.0,32.02,ESE,117,0.0,0.0,64,0.00,,---,0.11,VWS V14.01,2013-08-13 00:38:00,
2013-08-12 20:43:00,75.8,62.3,32.02,ESE,117,0.0,0.0,63,0.00,,---,0.11,VWS V14.01,2013-08-13 00:43:00,
2013-08-12 20:48:00,75.5,62.0,32.02,ESE,117,0.0,0.0,63,0.00,,---,0.11,VWS V14.01,2013-08-13 00:48:00,
2013-08-12 20:53:00,75.3,60.9,32.02,ESE,117,0.0,0.0,61,0.00,,---,0.11,VWS V14.01,2013-08-13 00:53:00,
2013-08-12 20:58:00,75.1,60.3,32.02,ESE,117,0.0,0.0,60,0.00,,---,0.11,VWS V14.01,2013-08-13 00:58:00,
2013-08-12 21:03:00,74.9,60.1,32.02,ESE,117,0.0,0.0,60,0.00,,---,0.11,VWS V14.01,2013-08-13 01:03:00,
2013-08-12 21:08:00,74.7,59.9,32.02,ESE,117,0.0,0.0,60,0.00,,---,0.11,VWS V14.01,2013-08-13 01:08:00,
2013-08-12 21:13:00,74.5,59.7,32.02,ESE,117,0.0,0.0,60,0.00,,---,0.11,VWS V14.01,2013-08-13 01:13:00,
2013-08-12 21:18:00,74.3,59.5,32.02,ESE,117,0.0,0.0,60,0.00,,---,0.11,VWS V14.01,2013-08-13 01:18:00,
2013-08-12 21:23:00,74.2,59.4,32.02,ESE,117,0.0,0.0,60,0.00,,---,0.11,VWS V14.01,2013-08-13 01:23:00,
2013-08-12 21:28:00,74.0,59.2,32.02,ESE,117,0.0,0.0,60,0.00,,---,0.11,VWS V14.01,2013-08-13 01:28:00,
2013-08-12 21:33:00,73.7,58.5,32.02,ESE,117,0.0,0.0,59,0.00,,---,0.11,VWS V14.01,2013-08-13 01:33:00,
2013-08-12 21:38:00,73.5,57.8,32.02,ESE,117,0.0,0.0,58,0.00,,---,0.11,VWS V14.01,2013-08-13 01:38:00,
2013-08-12 21:43:00,73.4,57.7,32.02,ESE,117,0.0,0.0,58,0.00,,---,0.11,VWS V14.01,2013-08-13 01:43:00,
2013-08-12 21:48:00,73.3,57.7,32.02,ESE,117,0.0,0.0,58,0.00,,---,0.11,VWS V14.01,2013-08-13 01:48:00,
2013-08-12 21:53:00,73.3,57.2,32.02,ESE,117,0.0,0.0,57,0.00,,---,0.11,VWS V14.01,2013-08-13 01:53:00,
2013-08-12 21:58:00,73.1,56.5,32.02,ESE,117,0.0,0.0,56,0.00,,---,0.11,VWS V14.01,2013-08-13 01:58:00,
2013-08-12 22:03:00,72.9,55.8,32.02,ESE,117,0.0,0.0,55,0.00,,---,0.11,VWS V14.01,2013-08-13 02:03:00,
2013-08-12 22:08:00,72.8,55.7,32.02,ESE,117,0.0,0.0,55,0.00,,---,0.11,VWS V14.01,2013-08-13 02:08:00,
2013-08-12 22:13:00,72.6,55.5,32.02,ESE,117,0.0,0.0,55,0.00,,---,0.11,VWS V14.01,2013-08-13 02:13:00,
2013-08-12 22:18:00,72.5,54.9,32.02,ESE,117,0.0,0.0,54,0.00,,---,0.11,VWS V14.01,2013-08-13 02:18:00,
2013-08-12 22:23:00,72.4,54.3,32.02,ESE,117,0.0,0.0,53,0.00,,---,0.11,VWS V14.01,2013-08-13 02:23:00,
2013-08-12 22:28:00,72.4,53.8,32.02,ESE,117,0.0,0.0,52,0.00,,---,0.11,VWS V14.01,2013-08-13 02:28:00,
2013-08-12 22:33:00,72.3,53.7,32.02,ESE,117,0.0,0.0,52,0.00,,---,0.11,VWS V14.01,2013-08-13 02:33:00,
2013-08-12 22:38:00,72.2,53.6,32.02,ESE,117,0.0,0.0,52,0.00,,---,0.11,VWS V14.01,2013-08-13 02:38:00,
2013-08-12 22:43:00,72.2,53.1,32.02,ESE,117,0.0,0.0,51,0.00,,---,0.11,VWS V14.01,2013-08-13 02:43:00,
2013-08-12 22:48:00,72.1,53.0,32.02,ESE,117,0.0,0.0,51,0.00,,---,0.11,VWS V14.01,2013-08-13 02:48:00,
2013-08-12 22:53:00,72.0,52.9,32.02,ESE,117,0.0,0.0,51,0.00,,---,0.11,VWS V14.01,2013-08-13 02:53:00,
2013-08-12 22:58:00,71.8,52.7,32.02,ESE,117,0.0,0.0,51,0.00,,---,0.11,VWS V14.01,2013-08-13 02:58:00,
2013-08-12 23:03:00,71.7,52.6,32.02,ESE,117,0.0,0.0,51,0.00,,---,0.11,VWS V14.01,2013-08-13 03:03:00,
2013-08-12 23:08:00,71.6,52.5,32.02,ESE,117,0.0,0.0,51,0.00,,---,0.11,VWS V14.01,2013-08-13 03:08:00,
2013-08-12 23:13:00,71.6,52.0,32.02,ESE,117,0.0,0.0,50,0.00,,---,0.11,VWS V14.01,2013-08-13 03:13:00,
2013-08-12 23:18:00,71.5,51.9,32.02,ESE,117,0.0,0.0,50,0.00,,---,0.11,VWS V14.01,2013-08-13 03:18:00,
2013-08-12 23:19:00,71.5,51.9,32.02,ESE,117,0.0,0.0,50,0.00,,---,0.11,VWS V14.01,2013-08-13 03:19:00,
2013-08-12 23:24:00,71.4,51.8,32.02,ESE,117,0.0,0.0,50,0.00,,---,0.11,VWS V14.01,2013-08-13 03:24:00,
2013-08-12 23:29:00,71.3,51.2,32.02,ESE,117,0.0,0.0,49,0.00,,---,0.11,VWS V14.01,2013-08-13 03:29:00,
2013-08-12 23:34:00,71.3,51.2,32.02,ESE,117,0.0,0.0,49,0.00,,---,0.11,VWS V14.01,2013-08-13 03:34:00,
2013-08-12 23:38:00,71.2,51.1,32.02,ESE,117,0.0,0.0,49,0.00,,---,0.11,VWS V14.01,2013-08-13 03:38:00,
2013-08-12 23:43:00,71.1,50.4,32.02,ESE,117,0.0,0.0,48,0.00,,---,0.11,VWS V14.01,2013-08-13 03:43:00,
2013-08-12 23:48:00,71.0,50.3,32.02,ESE,117,0.0,0.0,48,0.00,,---,0.11,VWS V14.01,2013-08-13 03:48:00,
2013-08-12 23:53:00,71.0,50.3,32.02,ESE,117,0.0,0.0,48,0.00,,---,0.11,VWS V14.01,2013-08-13 03:53:00,
2013-08-12 23:58:00,70.8,50.2,32.02,ESE,117,0.0,0.0,48,0.00,,---,0.11,VWS V14.01,2013-08-13 03:58:00,